Time,TemperatureF,DewpointF,PressureIn,WindDirection,WindDirectionDegrees,WindSpeedMPH,WindSpeedGustMPH,Humidity,HourlyPrecipIn,Conditions,Clouds,dailyrainin,SoftwareType,DateUTC
2013-11-17 15:08:00,54.7,54.1,29.79,North,0,2.2,-999.0,98,-99.99,,,0.00,Acu-Link.com,2013-11-17 20:08:00,
2013-11-17 15:25:00,55.2,54.6,29.78,South,180,1.7,-999.0,98,-99.99,,,0.00,Acu-Link.com,2013-11-17 20:25:00,
2013-11-17 15:41:00,55.2,54.6,29.76,NE,45,2.2,-999.0,98,-99.99,,,0.00,Acu-Link.com,2013-11-17 20:41:00,
2013-11-17 15:56:00,55.6,55.0,29.74,West,270,0.0,-999.0,98,-99.99,,,0.00,Acu-Link.com,2013-11-17 20:56:00,
2013-11-17 16:18:00,55.4,54.8,29.74,SSE,157,2.2,-999.0,98,-99.99,,,0.00,Acu-Link.com,2013-11-17 21:18:00,
2013-11-17 16:33:00,55.9,55.3,29.73,NW,315,3.7,-999.0,98,-99.99,,,0.00,Acu-Link.com,2013-11-17 21:33:00,
2013-11-17 16:49:00,56.1,55.5,29.74,SSE,157,1.7,-999.0,98,-99.99,,,0.00,Acu-Link.com,2013-11-17 21:49:00,
2013-11-17 17:06:00,56.8,56.2,29.73,SSE,157,2.7,-999.0,98,-99.99,,,0.00,Acu-Link.com,2013-11-17 22:06:00,
2013-11-17 17:21:00,56.8,56.2,29.72,East,90,1.7,-999.0,98,-99.99,,,0.00,Acu-Link.com,2013-11-17 22:21:00,
2013-11-17 17:44:00,56.7,56.1,29.72,SE,135,4.7,-999.0,98,-99.99,,,0.00,Acu-Link.com,2013-11-17 22:44:00,
2013-11-17 18:00:00,56.8,56.2,29.71,South,180,4.7,-999.0,98,-99.99,,,0.00,Acu-Link.com,2013-11-17 23:00:00,
2013-11-17 18:15:00,57.0,56.4,29.69,SSW,202,2.7,-999.0,98,-99.99,,,0.01,Acu-Link.com,2013-11-17 23:15:00,
2013-11-17 18:31:00,57.2,56.6,29.67,ESE,112,2.2,-999.0,98,-99.99,,,0.01,Acu-Link.com,2013-11-17 23:31:00,
2013-11-17 18:47:00,57.2,56.6,29.66,SSE,157,1.7,-999.0,98,-99.99,,,0.01,Acu-Link.com,2013-11-17 23:47:00,
2013-11-17 19:02:00,57.7,57.1,29.66,North,0,4.7,-999.0,98,-99.99,,,0.01,Acu-Link.com,2013-11-18 00:02:00,
2013-11-17 19:18:00,58.1,57.5,29.66,NNW,337,5.8,-999.0,98,-99.99,,,0.01,Acu-Link.com,2013-11-18 00:18:00,
2013-11-17 19:33:00,58.3,57.7,29.64,South,180,3.7,-999.0,98,-99.99,,,0.01,Acu-Link.com,2013-11-18 00:33:00,
2013-11-17 19:48:00,57.9,57.3,29.63,West,270,2.7,-999.0,98,-99.99,,,0.02,Acu-Link.com,2013-11-18 00:48:00,
2013-11-17 20:03:00,57.6,57.0,29.62,SW,225,3.7,-999.0,98,-99.99,,,0.02,Acu-Link.com,2013-11-18 01:03:00,
2013-11-17 20:18:00,57.6,57.0,29.61,South,180,4.2,-999.0,98,-99.99,,,0.02,Acu-Link.com,2013-11-18 01:18:00,
2013-11-17 20:33:00,57.9,57.3,29.60,SSW,202,2.7,-999.0,98,-99.99,,,0.02,Acu-Link.com,2013-11-18 01:33:00,
2013-11-17 20:49:00,57.9,57.3,29.56,NNW,337,3.2,-999.0,98,-99.99,,,0.03,Acu-Link.com,2013-11-18 01:49:00,
2013-11-17 21:04:00,58.8,58.2,29.57,SSE,157,2.2,-999.0,98,-99.99,,,0.03,Acu-Link.com,2013-11-18 02:04:00,
2013-11-17 21:19:00,59.2,58.6,29.54,SW,225,3.2,-999.0,98,-99.99,,,0.03,Acu-Link.com,2013-11-18 02:19:00,
2013-11-17 21:34:00,59.4,58.8,29.52,SSE,157,2.2,-999.0,98,-99.99,,,0.04,Acu-Link.com,2013-11-18 02:34:00,
2013-11-17 21:49:00,59.0,58.4,29.51,ENE,67,2.7,-999.0,98,-99.99,,,0.05,Acu-Link.com,2013-11-18 02:49:00,
2013-11-17 22:04:00,59.7,59.1,29.49,South,180,2.7,-999.0,98,-99.99,,,0.05,Acu-Link.com,2013-11-18 03:04:00,
2013-11-17 22:20:00,59.5,58.9,29.49,WSW,247,4.2,-999.0,98,-99.99,,,0.05,Acu-Link.com,2013-11-18 03:20:00,
2013-11-17 22:35:00,60.3,59.7,29.47,WNW,292,3.2,-999.0,98,-99.99,,,0.05,Acu-Link.com,2013-11-18 03:35:00,
2013-11-17 22:50:00,60.1,59.5,29.47,SSW,202,2.2,-999.0,98,-99.99,,,0.05,Acu-Link.com,2013-11-18 03:50:00,
2013-11-17 23:05:00,58.8,58.2,29.45,South,180,3.2,-999.0,98,-99.99,,,0.32,Acu-Link.com,2013-11-18 04:05:00,
2013-11-17 23:20:00,58.6,58.0,29.44,NE,45,3.7,-999.0,98,-99.99,,,0.40,Acu-Link.com,2013-11-18 04:20:00,
2013-11-17 23:35:00,58.3,57.7,29.42,WSW,247,1.7,-999.0,98,-99.99,,,0.42,Acu-Link.com,2013-11-18 04:35:00,
2013-11-17 23:50:00,58.6,58.0,29.43,West,270,2.2,-999.0,98,-99.99,,,0.46,Acu-Link.com,2013-11-18 04:50:00,